Flag for Germany Weather past 2 weeks in Sankt Ingbert, Saarland, Germany

42 °F

Sprinkles. Partly sunny.

Feels Like: 42 °F
Forecast: 28 / 36 °F
Wind: 1 mph from North

Location: Saarbruecken / Ensheim

Current Time: Nov 26, 2015 at 5:18:11 PM

Latest Report: Nov 26, 2015 at 4:00 PM

Visibility: 19 mi

Pressure: 30.10 "Hg

Humidity: 77%

Dew point: 35 °F

Location of Sankt IngbertLocation

Historic Weather in Sankt Ingbert — Graph


Sankt Ingbert temperature yesterday

Maximum temperature yesterday: 40 °F (at 4:00 PM)
Minimum temperature yesterday: 32 °F (at 12:00 AM)
Average temperature yesterday: 35 °F

Past Weeks' High & Low Weather Summary

High57 °F (Nov 18, 2:00 AM)100% (Nov 13, 2:00 AM)30.48 "Hg (Nov 13, 2:00 AM)
Low27 °F (Nov 23, 4:00 AM)69% (Nov 14, 2:00 PM)29.44 "Hg (Nov 21, 11:00 AM)
Average43 °F92%30.05 "Hg
* Reported Nov 11 4:00 PM — Nov 26 4:00 PM, Sankt Ingbert, Weather by CustomWeather, © 2015

Note: Actual official high and low records may vary slightly from our data, if they occured in-between our weather recording intervals... More about our weather records


Sankt Ingbert weather history for previous 24 hours

Time TempWeatherWind HumidityBarometerVisibility
4:00 PM
Thu, Nov 26
42 °FSprinkles. Partly sunny.1 mph77%30.10 "Hg19 mi
3:00 PM42 °FPartly sunny.2 mph83%30.08 "Hg19 mi
2:00 PM42 °FPartly sunny.3 mph78%30.07 "Hg19 mi
1:00 PM40 °FSprinkles. Overcast.2 mph85%30.06 "Hg17 mi
12:00 PM40 °FPartly sunny.3 mph89%30.06 "Hg16 mi
11:00 AM39 °FChilly.3 mph99%30.04 "HgN/A
10:00 AM37 °FScattered clouds.3 mph100%30.03 "Hg6 mi
9:00 AM35 °FPartly sunny.2 mph100%30.01 "Hg5 mi
8:00 AM35 °FLow clouds.2 mph100%29.99 "Hg4 mi
7:00 AM35 °FDrizzle. Low clouds.1 mph100%29.96 "Hg3 mi
4:00 AM35 °FOvercast.2 mph100%29.91 "Hg5 mi
3:00 AM35 °FOvercast.2 mph100%29.90 "Hg6 mi
2:00 AM34 °FPassing clouds.2 mph100%29.88 "Hg6 mi
1:00 AM34 °FPassing clouds.3 mph100%29.86 "Hg6 mi
12:00 AM34 °FPassing clouds.2 mph100%29.85 "Hg6 mi
11:00 PM
Wed, Nov 25
34 °FPassing clouds.1 mph100%29.83 "Hg6 mi
10:00 PM35 °FLow clouds.3 mph100%29.83 "Hg5 mi
9:00 PM34 °FLow clouds.1 mph100%29.82 "Hg6 mi
8:00 PM34 °FFog.1 mph100%29.80 "Hg4 mi
7:00 PM35 °FFog.2 mph100%29.79 "Hg6 mi
6:00 PM35 °FPassing clouds.2 mph99%29.77 "Hg16 mi
5:00 PM37 °FLight mixture of precip. Low clouds.6 mph100%29.76 "Hg4 mi
Weather by CustomWeather, © 2015

See weather overviewHow to use our weather pages